Location: Killam
(52.7910°N, 111.8608°W)
Time: 05:21:36
(UTC+00:00)

A-11 Canister half - Pass Details

Date: 19 February 2026
Orbit: 1524 x 1683 km, 47.3° (Epoch: 13 March)

Event Time Altitude Azimuth Distance (km) Brightness Sun altitude
Rises 22:32:18 0° 204° (SSW) 4,735 12.9 16.5°
Reaches altitude 10° 22:35:55 10° 193° (SSW) 3,732 12.2 16.1°
Maximum altitude 22:43:28 28° 139° (SE) 2,555 10.4 15.3°
Drops below altitude 10° 22:50:55 10° 85° (E) 3,694 10.6 14.5°
Sets 22:54:27 0° 75° (ENE) 4,679 11.0 14.0°
